sat.trackr.live / text

‹ back to catalog

QIANFAN-115

NORAD 68642 · 2026-075G

PAYLOAD ACTIVE UNKNOWN

§ Identity

Operator
Country
PRC
Launch date
2026-04-07
Launch site
WSC
Launch vehicle
Mass (kg)
RCS (m²)

External: N2YO · Heavens-Above · Gunter

§ Orbital elements

Epoch: 2026-09-20T03:10:07.208832Z

Period
106.59 min
Inclination
88.9863°
Eccentricity
0.0002080
Mean motion
13.51024607 rev/d
Perigee alt
1,066.9 km
Apogee alt
1,070.0 km
Semi-major
7,446.6 km
B*
6.2503e-5
RAAN
311.3334°
Arg perigee
94.0129°
Mean anomaly
266.1260°
Rev number
2,261

§ Raw data

QIANFAN-1151 68642U 26075G   26263.13202788  .00000052  00000+0  62503-4 0  99922 68642  88.9863 311.3334 0002080  94.0129 266.1260 13.51024607 22616

JSON: /api/v1/satellites/68642 · /tle

For live sub-satellite position, see the globe view (requires WebGL).

§ Visibility from observer

Set your observer location to see the next 7 days of passes ≥ 10°. The values pass through the URL so the page stays shareable.

No JS? Fill the form by hand. The geolocation button needs JavaScript.